JH5EWP-13 Weather Reports


time (UTC)temp
F
wind
direction
speed
knots
gust
knots
rain 1hr
in
rain 24hr
in
rain mn
in
humidity
%
barometer
mb
20260507092123 72 223 1.7 3.5 0.00 0.00 0.00 62 1000.8
20260507090622 72 247 2.6 4.3 0.00 0.00 0.00 62 1001.0
20260507085123 72 247 2.6 5.2 0.00 0.00 0.00 58 1000.9
20260507083623 73 256 2.6 5.2 0.00 0.00 0.00 57 1000.9
20260507082123 73 254 2.6 5.2 0.00 0.00 0.00 55 1001.0
20260507080623 74 249 4.3 6.1 0.00 0.00 0.00 54 1000.9
20260507075124 75 279 3.5 6.1 0.00 0.00 0.00 53 1001.0
20260507073624 76 263 3.5 6.1 0.00 0.00 0.00 52 1000.9
20260507072123 78 228 2.6 4.3 0.00 0.00 0.00 50 1001.0
20260507070623 76 260 3.5 7.0 0.00 0.00 0.00 51 1000.9
20260507065123 78 235 2.6 7.0 0.00 0.00 0.00 50 1001.0
20260507063623 78 260 3.5 7.0 0.00 0.00 0.00 49 1001.0
20260507062123 78 267 3.5 6.1 0.00 0.00 0.00 49 1001.0
20260507060623 77 272 2.6 5.2 0.00 0.00 0.00 50 1001.3
20260507055122 76 276 4.3 6.1 0.00 0.00 0.00 51 1001.5
20260507053622 78 269 3.5 5.2 0.00 0.00 0.00 50 1001.7
20260507053244 77 253 3.5 5.2 0.00 0.00 0.00 50 1001.6
20260507051744 76 266 3.5 6.1 0.00 0.00 0.00 50 1002.2
20260507050243 77 294 3.5 6.1 0.00 0.00 0.00 50 1002.2
20260507044743 76 269 3.5 5.2 0.00 0.00 0.00 50 1002.4
20260507043243 77 285 3.5 7.0 0.00 0.00 0.00 50 1002.5
20260507041743 79 257 1.7 4.3 0.00 0.00 0.00 49 1002.7
20260507040243 77 261 2.6 5.2 0.00 0.00 0.00 50 1002.9
20260507034743 76 278 4.3 7.0 0.00 0.00 0.00 50 1003.2
20260507033243 77 272 1.7 5.2 0.00 0.00 0.00 50 1003.5
20260507031743 76 295 4.3 6.1 0.00 0.00 0.00 48 1003.5
20260507030244 77 300 3.5 6.1 0.00 0.00 0.00 47 1003.8
20260507024744 77 297 3.5 7.8 0.00 0.00 0.00 47 1004.0
20260507023244 77 291 3.5 5.2 0.00 0.00 0.00 47 1004.2
20260507021744 77 292 3.5 5.2 0.00 0.00 0.00 49 1004.4
20260507020244 76 290 3.5 6.1 0.00 0.00 0.00 50 1004.5
20260507014744 76 294 2.6 5.2 0.00 0.00 0.00 49 1004.3
20260507013244 75 287 2.6 5.2 0.00 0.00 0.00 49 1004.7
20260507011744 75 270 3.5 7.8 0.00 0.00 0.00 49 1004.8
20260507010243 75 282 2.6 4.3 0.00 0.00 0.00 46 1004.8
20260507004744 74 287 2.6 4.3 0.00 0.00 0.00 47 1005.0
20260507003244 74 301 1.7 5.2 0.00 0.00 0.00 49 1005.1
20260507001744 73 294 1.7 4.3 0.00 0.00 0.00 48 1005.2
20260507000245 72 279 1.7 2.6 0.00 0.00 0.00 52 1005.5
20260506234744 70 270 0.9 2.6 0.00 0.00 0.00 52 1005.6
20260506233244 68 270 0.9 2.6 0.00 0.00 0.00 57 1005.7
20260506231744 67 270 0.9 2.6 0.00 0.00 0.00 57 1005.9
20260506230244 67 343 0.9 2.6 0.00 0.00 0.00 60 1006.0
20260506224744 66 354 0.0 1.7 0.00 0.00 0.00 63 1006.1
20260506223245 64 20 0.0 1.7 0.00 0.00 0.00 64 1006.2
20260506221744 62 128 0.0 1.7 0.00 0.00 0.00 71 1006.3
20260506220244 61 116 0.0 1.7 0.00 0.00 0.00 71 1006.2
20260506214744 61 173 0.0 0.9 0.00 0.00 0.00 71 1006.1
20260506213243 60 244 0.9 2.6 0.00 0.00 0.00 71 1006.1
20260506211743 60 123 0.0 0.9 0.00 0.00 0.00 71 1006.1
20260506210243 61 132 0.0 0.9 0.00 0.00 0.00 72 1005.5
20260506204744 59 133 0.0 2.6 0.00 0.00 0.00 73 1005.5
20260506203243 58 122 0.0 2.6 0.00 0.00 0.00 74 1005.4
20260506201745 57 97 0.9 2.6 0.00 0.00 0.00 74 1005.6
20260506200243 57 100 0.9 2.6 0.00 0.00 0.00 74 1005.7
20260506194744 57 94 2.6 5.2 0.00 0.00 0.00 74 1005.9
20260506193243 58 100 2.6 5.2 0.00 0.00 0.00 74 1006.0
20260506191744 57 114 1.7 3.5 0.00 0.00 0.00 74 1006.2
20260506190244 57 111 1.7 3.5 0.00 0.00 0.00 74 1006.2
20260506184743 57 94 0.9 2.6 0.00 0.00 0.00 73 1006.1
20260506183243 57 90 0.0 2.6 0.00 0.00 0.00 72 1006.1
20260506181745 57 120 0.0 1.7 0.00 0.00 0.00 72 1006.2
20260506180245 58 109 0.0 2.6 0.00 0.00 0.00 72 1006.0
20260506174743 58 90 0.9 2.6 0.00 0.00 0.00 72 1006.0
20260506173243 58 104 1.7 3.5 0.00 0.00 0.00 71 1006.1
20260506171743 58 113 1.7 2.6 0.00 0.00 0.00 71 1006.1
20260506170243 59 109 1.7 2.6 0.00 0.00 0.00 71 1006.2
20260506164743 58 107 0.9 2.6 0.00 0.00 0.00 71 1006.2
20260506163243 59 100 1.7 4.3 0.00 0.00 0.00 71 1006.4
20260506161743 59 98 1.7 4.3 0.00 0.00 0.00 71 1006.5
20260506160243 59 91 0.9 3.5 0.00 0.00 0.00 70 1006.8
20260506154744 59 109 1.7 5.2 0.00 0.00 0.00 70 1006.8
20260506153244 60 96 1.7 4.3 0.00 0.00 0.00 68 1007.1
20260506151744 60 96 2.6 4.3 0.00 0.00 0.00 66 1007.1
20260506150244 60 108 0.9 2.6 0.00 0.00 0.00 66 1007.4
20260506144744 60 99 1.7 3.5 0.00 0.00 0.00 65 1007.7
20260506143243 61 105 1.7 2.6 0.00 0.00 0.00 64 1007.7
20260506141743 61 117 0.9 2.6 0.00 0.00 0.00 63 1007.6
20260506140244 62 98 1.7 2.6 0.00 0.00 0.00 63 1007.5
20260506134744 62 108 0.9 2.6 0.00 0.00 0.00 62 1007.8
20260506133244 62 120 0.9 2.6 0.00 0.00 0.00 61 1007.7
20260506131744 62 110 1.7 2.6 0.00 0.00 0.00 61 1007.6
20260506130243 63 107 1.7 3.5 0.00 0.00 0.00 61 1007.2
20260506124743 63 135 0.0 0.9 0.00 0.00 0.00 59 1007.3
20260506123243 63 94 0.0 1.7 0.00 0.00 0.00 57 1007.2
20260506121744 64 110 0.9 2.6 0.00 0.00 0.00 53 1007.1
20260506120242 64 106 0.9 1.7 0.00 0.00 0.00 52 1006.9
20260506114847 65 91 0.9 2.6 0.00 0.00 0.00 52 1006.8
20260506113347 65 90 0.9 2.6 0.00 0.00 0.00 51 1006.7
20260506111847 65 90 0.0 2.6 0.00 0.00 0.00 50 1006.7
20260506110346 65 90 0.0 0.0 0.00 0.00 0.00 50 1006.6
20260506104846 65 90 0.0 0.0 0.00 0.00 0.00 47 1006.6
20260506103346 66 90 0.0 0.9 0.00 0.00 0.00 45 1006.5
20260506101848 67 90 0.0 0.9 0.00 0.00 0.00 44 1006.8
20260506100348 67 90 0.0 0.9 0.00 0.00 0.00 42 1006.7
20260506094848 68 90 0.0 0.9 0.00 0.00 0.00 41 1006.3
20260506093347 70 83 0.0 1.7 0.00 0.00 0.00 40 1006.7